Regional Weather Roundup
Issued by NWS San Angelo, TX

Home | Current Version | Previous Version | Text Only | Print | Product List | Glossary On
Versions: 1 2 3 4 5 6 7 8 9 10 11 12 13 14 15 16 17 18 19 20 21 22 23 24 25 26 27 28 29 30 31 32 33 34 35 36 37 38 39 40 41 42 43 44 45 46 47 48 49 50
000
ASUS44 KSJT 262310
RWRSJT
WEST CENTRAL TEXAS REGIONAL WEATHER ROUNDUP
NATIONAL WEATHER SERVICE SAN ANGELO TX
600 PM CDT FRI MAY 26 2017

NOTE: "FAIR" INDICATES FEW OR NO CLOUDS BELOW 12,000 FEET WITH NO
SIGNIFICANT WEATHER AND/OR OBSTRUCTIONS TO VISIBILITY.

TXZ049-054-064>066-071>073-076>078-098-099-113-114-127-128-139-140-
154-155-168>170-270000
...LOCATIONS ACROSS WEST CENTRAL TEXAS...

CITY           SKY/WX    TMP DP  RH WIND       PRES   REMARKS
SAN ANGELO     SUNNY    101  35  10 NW7       29.79F
ABILENE        MOSUNNY   97  45  16 S8        29.79F
DYESS AFB      SUNNY     97  50  20 S8        29.77F
JUNCTION       MOSUNNY   99  62  29 SW7       29.80F
SWEETWATER     SUNNY     97  34  11 S14G21    29.83F
BROWNWOOD      LGT RAIN  93  61  33 CALM      29.78F
COLEMAN        CLOUDY    98  58  26 SE7       29.80S
SONORA         NOT AVBL
OZONA            N/A    100  32   9 CALM      29.85F
BRADY          NOT AVBL
$$

TEXAS PANHANDLE/OKLAHOMA PANHANDLE

CITY           SKY/WX    TMP DP  RH WIND       PRES   REMARKS
AMARILLO       SUNNY     86  45  23 S9        29.87F
BORGER         SUNNY     87  49  26 CALM      29.84F
CANADIAN       SUNNY     86  57  36 SE5       29.81F
DALHART        SUNNY     86  38  18 S13G21    29.87F
DUMAS          CLEAR     83  48  29 S7        29.86F
GUYMON         NOT AVBL
HEREFORD       CLEAR     91  30  11 SW6G20    29.87S
PAMPA          PTCLDY    84  50  30 SE7       29.86F
PERRYTON       SUNNY     87  50  28 SE9       29.83F
$$

SOUTHERN PANHANDLE/SOUTH PLAINS/ROLLING PLAINS

CITY           SKY/WX    TMP DP  RH WIND       PRES   REMARKS
LUBBOCK        MOSUNNY   95  17   6 SW16G24   29.83F
SNYDER         SUNNY     99  27   8 SW18G30   29.81S
CHILDRESS      SUNNY     94  52  24 N5        29.78F
SEMINOLE       CLEAR     94  29  10 SW13G22   29.87F
$$

PERMIAN BASIN

CITY           SKY/WX    TMP DP  RH WIND       PRES   REMARKS
MIDLAND        SUNNY     99  21   6 W18G35    29.85F
ODESSA         SUNNY     98  19   6 W18G24    29.86F
WINK           SUNNY     98  26   7 W14       29.83F
$$

FAR WEST/SOUTHWEST MOUNTAINS/TRANS PECOS

CITY           SKY/WX    TMP DP  RH WIND       PRES   REMARKS
ALPINE         CLEAR     93  28   9 W13       30.05F
DRYDEN           N/A     99  54  22 E10G20    29.81F
EL PASO        MOSUNNY   93  21   7 SW28G36   29.90F
FORT STOCKTON  SUNNY     97  33  10 MISG      29.87F
GUADALUPE PASS CLOUDY    84  26  12 W31G49    30.03S
MARFA          SUNNY     90  28  11 MISG      30.04F
PECOS          CLEAR     99  29   8 W16G26    29.84F
$$

DALLAS/FORT WORTH METROPLEX

CITY           SKY/WX    TMP DP  RH WIND       PRES   REMARKS
DFW AIRPORT    CLOUDY    90  74  59 S17G28    29.74S
FTW MEACHAM    PTSUNNY   90  75  61 S18G24    29.74S
DAL-EXECUTIVE  PTSUNNY   87  74  64 S8G23     29.76F
GRAND PRAIRIE  SUNNY     88  72  58 SE14G23   29.78S
ADDISON        MOSUNNY   90  72  55 S21G28    29.75F
MESQUITE       PTCLDY    88  72  58 S16       29.78S
LANCASTER      MOCLDY    87  73  64 S16       29.79S
$$

NORTH CENTRAL TEXAS

CITY           SKY/WX    TMP DP  RH WIND       PRES   REMARKS
SHRMAN/DENISON CLOUDY    91  73  56 S17G23    29.74S
GAINESVILLE    PTSUNNY   93  72  50 S14G20    29.74S
BRIDGEPORT     MOCLDY    94  67  40 S9        29.74S
DENTON         CLOUDY    90  75  61 S21G28    29.73R
WAXAHACHIE     MOCLDY    85  74  68 S13       29.80S
GRANBURY       CLOUDY    92  73  54 SE15G22   29.77R
$$

WESTERN NORTH TEXAS

CITY           SKY/WX    TMP DP  RH WIND       PRES   REMARKS
WICHITA FALLS  MOSUNNY   90  62  39 SW9       29.73S
VERNON         PTCLDY    94  48  20 SW5       29.76S
BRECKENRIDGE   CLOUDY    99  47  16 SW12      29.75S HAZE
COMANCHE       CLOUDY    91  73  55 S8        29.79F
$$

CENTRAL AND SOUTH CENTRAL TEXAS

CITY           SKY/WX    TMP DP  RH WIND       PRES   REMARKS
AUSTIN/BERGSTM PTSUNNY   92  71  50 SW12      29.80F
WACO           CLOUDY    88  74  63 S17       29.80F
HILLSBORO      CLOUDY    85  75  70 S16G25    29.80S
TEMPLE         MOSUNNY   89  74  60 S15       29.82F
KILLEEN-GRAY   MOSUNNY   86  73  64 S14       29.81S
FORT HOOD      MOSUNNY   86  72  64 S14       29.79F
GEORGETOWN     PTSUNNY   90  72  55 S15G21    29.81
LAGO VISTA     CLOUDY    87  71  59 S8        29.85S
SAN MARCOS     PTSUNNY   90  72  55 S10       29.82F
NEW BRAUNFELS  MOSUNNY   91  72  53 S10       29.81F
RANDOLPH AFB   PTSUNNY   90  72  55 SE9       29.82S HAZE
SAN ANTONIO    PTSUNNY   90  70  51 S3        29.82F
STINSON        MOSUNNY   91  72  53 SE8       29.79F
PLEASANTON     NOT AVBL
LA GRANGE      MOSUNNY   89  76  65 S13G18    29.81S
GIDDINGS       PTCLDY    89  73  57 S10       29.83F
$$

EAST TEXAS

CITY           SKY/WX    TMP DP  RH WIND       PRES   REMARKS
PARIS          MOSUNNY   88  72  58 S12G24    29.78S
CLARKSVILLE    NOT AVBL
TYLER          MOSUNNY   87  72  60 S21G29    29.82R
LONGVIEW       MOSUNNY   88  75  65 S13       29.82S
PALESTINE      MOCLDY    87  75  65 S6        29.84S
NACOGDOCHES    MOSUNNY   88  73  62 S12G17    29.82F
$$

TEXAS HILL COUNTRY AND EDWARDS PLATEAU

CITY           SKY/WX    TMP DP  RH WIND       PRES   REMARKS
LLANO          PTCLDY    91  73  55 S7        29.84S
HORSESHOE BAY  NOT AVBL
KERRVILLE      SUNNY     88  74  63 S10G16    29.85F
FREDERICKSBRG  SUNNY     87  67  51 S5        29.85F
ROCKSPRINGS    CLOUDY    88  70  55 CALM      29.90S
HONDO          MOSUNNY   90  73  57 S5        29.82F
UVALDE         PTCLDY    89  73  60 CALM      29.82S
DEL RIO        CLOUDY    90  72  55 SE9       29.78S
$$

SOUTHEAST TEXAS

CITY           SKY/WX    TMP DP  RH WIND       PRES   REMARKS
COLLEGE STN    MOSUNNY   89  74  60 S16G23    29.83S
CALDWELL       NOT AVBL
CROCKETT       PTCLDY    90  73  58 S14       29.86S
BRENHAM        MOSUNNY   89  74  61 S16       29.85R
HUNTSVILLE     MOSUNNY   89  71  55 S12G21    29.85S
CONROE         PTSUNNY   88  73  61 S13       29.86R
HOUSTON BUSH   PTSUNNY   86  74  67 S12       29.86S
HOUSTON HOBBY  CLOUDY    83  74  74 S14       29.87S
PERLAND        CLOUDY    85  74  69 S14       29.88F
WHARTON        CLOUDY    83  73  69 S12       29.86S
$$

THE UPPER TEXAS COAST

CITY           SKY/WX    TMP DP  RH WIND       PRES   REMARKS
ORANGE         CLOUDY    82  75  79 S13       29.93F
PORT ARTHUR    CLOUDY    82  73  74 S16       29.90F
GALVESTON      SUNNY     84  78  82 SE16      29.89F
ANGLETON       CLOUDY    84  76  76 S16       29.87F
BAY CITY       CLOUDY    84  76  77 SE14      29.86S
$$

TEXAS COASTAL BEND, RIO GRANDE PLAINS DEEP SOUTH TEXAS

CITY           SKY/WX    TMP DP  RH WIND       PRES   REMARKS
VICTORIA       CLOUDY    85  75  72 S16       29.84S
BEEVILLE       MOCLDY    88  79  74 SE10      29.81S
ROCKPORT       PTSUNNY   85  76  74 SE17G24   29.81F
PORT ARANSAS   CLEAR     83  76  81 SE18      29.82S
PORT LAVACA    CLOUDY    82  79  89 SE15      29.84S
CORPUS CHRISTI MOSUNNY   87  78  74 SE20      29.80R
KINGSVILLE NAS SUNNY     92  80  68 SE18      29.78R
COTULLA        MOSUNNY  100  68  35 VRB7      29.75F
LAREDO         SUNNY     97  74  47 CALM      29.75F
BROWNSVILLE    MOSUNNY   89  78  70 S20       29.80F
PORT ISABEL    MOSUNNY   89  77  67 S20       29.79S
HEBBRONVILLE   PTCLDY    98  68  37 SE12      29.78S
MCALLEN        MOSUNNY   96  77  54 SE20G25   29.75S
WESLACO        SUNNY     93  75  56 S15G24    29.75F
FALFURRIAS     CLEAR     98  71  41 S13G24    29.75R
EDINBURG       CLOUDY    96  73  47 S18       29.76S
$$



USA.gov is the U.S. government's official web portal to all federal, state and local government web resources and services.